TimeMDT,TemperatureF,Dew PointF,Humidity,Sea Level PressureIn,VisibilityMPH,Wind Direction,Wind SpeedMPH,Gust SpeedMPH,PrecipitationIn,Events,Conditions,WindDirDegrees,DateUTC
12:53 AM,35.1,30.0,82,29.97,10.0,SSE,23.0,-,N/A,,Clear,160,2012-10-12 06:53:00
2:53 AM,36.0,30.0,79,29.94,10.0,South,17.3,-,N/A,,Clear,170,2012-10-12 08:53:00
3:53 AM,37.0,30.9,79,29.96,10.0,South,10.4,-,N/A,,Clear,190,2012-10-12 09:53:00
4:53 AM,36.0,30.0,79,29.98,10.0,South,10.4,-,N/A,,Clear,190,2012-10-12 10:53:00
5:53 AM,30.9,28.0,89,30.03,10.0,WSW,6.9,-,N/A,,Clear,240,2012-10-12 11:53:00
6:53 AM,33.1,28.0,82,30.05,10.0,South,5.8,-,N/A,,Clear,180,2012-10-12 12:53:00
7:53 AM,39.9,30.9,70,30.01,10.0,SE,6.9,-,N/A,,Clear,130,2012-10-12 13:53:00
8:53 AM,48.0,32.0,54,29.98,10.0,SE,4.6,-,N/A,,Clear,140,2012-10-12 14:53:00
10:53 AM,62.1,30.0,30,29.90,10.0,SW,11.5,-,N/A,,Clear,220,2012-10-12 16:53:00
11:53 AM,64.9,30.9,28,29.86,10.0,SSW,5.8,-,N/A,,Clear,200,2012-10-12 17:53:00
12:53 PM,66.0,30.9,27,29.82,10.0,Variable,3.5,-,N/A,,Clear,0,2012-10-12 18:53:00
1:53 PM,64.0,30.0,28,29.81,10.0,SSE,13.8,21.9,N/A,,Overcast,150,2012-10-12 19:53:00
2:53 PM,61.0,30.0,31,29.81,10.0,SSE,15.0,-,0.00,,Scattered Clouds,150,2012-10-12 20:53:00
4:53 PM,46.0,43.0,89,29.91,10.0,West,16.1,-,0.02,Rain,Light Rain,270,2012-10-12 22:53:00
5:53 PM,46.0,43.0,89,29.94,10.0,NW,9.2,-,0.03,Rain,Light Rain,320,2012-10-12 23:53:00
6:53 PM,45.0,39.9,82,29.91,10.0,North,6.9,-,0.01,,Mostly Cloudy,10,2012-10-13 00:53:00
8:53 PM,39.9,39.0,97,29.86,10.0,South,8.1,-,N/A,,Clear,190,2012-10-13 02:53:00
9:53 PM,41.0,37.9,89,29.79,10.0,SSW,17.3,-,N/A,,Clear,210,2012-10-13 03:53:00
10:53 PM,39.9,37.0,89,29.77,10.0,SW,13.8,-,N/A,,Partly Cloudy,220,2012-10-13 04:53:00
11:53 PM,42.1,36.0,79,29.72,10.0,SSW,15.0,-,N/A,,Mostly Cloudy,210,2012-10-13 05:53:00